Вернуться в каталог

FENGYUN 1C DEB

LostPO
NORAD 38803·DEBRIS·🇨🇳 China

Запущен May 10, 1999 с Taiyuan Satellite Launch Center

Loading…

Ближайшие Пролёты (ближайшие 24 часа)

TLE

УстаревшееSource: Space-Track

Эпоха: Jul 31, 2026, 00:14 UTC

1 38803U 99025EUT 26212.01039919  .00003483  00000-0  14574-2 0  9993
2 38803  99.1330 230.1117 0064775  96.5693 264.2864 14.25618402634919

Отслеживайте FENGYUN 1C DEB в реальном времени с AllMySat

Download on the App Store